This is the latest recevied weather packets stored in our database for station/object DM2KB-13. If no packets are shown the sender has not sent any weather packets the latest 1 day(s).
| Time | Temp. | Humidity | Pressure | Rain* | Wind** | Luminosity | Snow |
|---|---|---|---|---|---|---|---|
| 1778020539 | 10.56° C | 97% | 1006.5 hPa | 2.79 mm | 0.89 m/s, 15° | 0 W/m² | - |
| 1778020238 | 10.56° C | 97% | 1006.5 hPa | 2.79 mm | 0.89 m/s, 26° | 0 W/m² | - |
| 1778019938 | 10.56° C | 97% | 1006.6 hPa | 2.29 mm | 0.89 m/s, 18° | 0 W/m² | - |
| 1778019638 | 10.56° C | 97% | 1006.6 hPa | 2.03 mm | 0.89 m/s, 48° | 0 W/m² | - |
| 1778019338 | 10.56° C | 97% | 1006.6 hPa | 1.78 mm | 0.89 m/s, 29° | 0 W/m² | - |
| 1778019037 | 10.56° C | 97% | 1006.6 hPa | 1.27 mm | 1.34 m/s, 358° | 0 W/m² | - |
| 1778018737 | 10.56° C | 97% | 1006.7 hPa | 1.02 mm | 0.89 m/s, 46° | 0 W/m² | - |
| 1778018437 | 10.56° C | 97% | 1006.7 hPa | 0.76 mm | 0.89 m/s, 14° | 0 W/m² | - |
| 1778018136 | 10.56° C | 97% | 1006.8 hPa | 0.76 mm | 0.89 m/s, 29° | 0 W/m² | - |
| 1778017836 | 10.56° C | 97% | 1006.8 hPa | 0.51 mm | 0.89 m/s, 36° | 0 W/m² | - |
| 1778017536 | 10.56° C | 97% | 1006.9 hPa | 0.51 mm | 0.89 m/s, 13° | 0 W/m² | - |
| 1778017236 | 10.56° C | 97% | 1006.9 hPa | 0.51 mm | 1.34 m/s, 6° | 0 W/m² | - |
| 1778016935 | 10.56° C | 97% | 1006.9 hPa | 0.51 mm | 1.34 m/s, 40° | 0 W/m² | - |
| 1778016635 | 10.56° C | 97% | 1007 hPa | 0.25 mm | 0.89 m/s, 2° | 0 W/m² | - |
| 1778016335 | 10.56° C | 97% | 1007 hPa | 0.25 mm | 0.45 m/s, 0° | 0 W/m² | - |
| 1778016034 | 10.56° C | 97% | 1007 hPa | 0.25 mm | 0.89 m/s, 2° | 0 W/m² | - |
| 1778015734 | 10.56° C | 97% | 1007 hPa | 0 mm | 0.89 m/s, 22° | 0 W/m² | - |
| 1778015434 | 10.56° C | 97% | 1007.1 hPa | 0 mm | 0.89 m/s, 42° | 0 W/m² | - |
| 1778015134 | 10.56° C | 96% | 1007.1 hPa | 0 mm | 0.89 m/s, 1° | 0 W/m² | - |
| 1778014833 | 10.56° C | 96% | 1007.1 hPa | 0 mm | 0.89 m/s, 39° | 0 W/m² | - |
| 1778014533 | 10.56° C | 96% | 1007.1 hPa | 0 mm | 0.89 m/s, 67° | 0 W/m² | - |
| 1778014233 | 10.56° C | 96% | 1007.1 hPa | 0 mm | 1.34 m/s, 28° | 0 W/m² | - |
| 1778013933 | 10.56° C | 96% | 1007.2 hPa | 0 mm | 0.89 m/s, 39° | 0 W/m² | - |
| 1778013632 | 10.56° C | 96% | 1007.2 hPa | 0 mm | 0.89 m/s, 44° | 0 W/m² | - |
| 1778013332 | 10.56° C | 96% | 1007.2 hPa | 0 mm | 0.89 m/s, 38° | 0 W/m² | - |
* Rain latest hour (hover to see other rain measurements)
** Current wind speed in m/s (hover to see current wind gust speed)